Location: Limoges
(45.8354°N, 1.2645°E)
Time: 20:02:47
(UTC+02:00)

Courier 1B Rocket - Pass Details

Date: 28 February 2024
Orbit: 920 x 1201 km, 28.2° (Epoch: 20 April)

Event Time Altitude Azimuth Distance (km) Brightness Sun altitude
Rises 04:27:29 0° 237° (WSW) 3,600 - -33.1°
Reaches altitude 10° 04:31:20 10° 215° (SW) 2,624 - -32.5°
Maximum altitude 04:34:42 15° 182° (S) 2,265 - -31.9°
Exits shadow 04:37:18 12° 155° (SSE) 2,471 7.1 -31.5°
Drops below altitude 10° 04:38:03 10° 149° (SSE) 2,602 7.3 -31.4°
Sets 04:41:51 0° 127° (SE) 3,552 8.3 -30.8°
